Location: Bremen
(53.0796°N, 8.8241°E)
Time: 12:33:04
(UTC+01:00)

ISS - Pass Details

Date: 06 January 2018
Orbit: 402 x 407 km, 51.6° (Epoch: 19 January)

Event Time Altitude Azimuth Distance (km) Brightness Sun altitude
Exits shadow 05:13:43 16° 92° (E) 1,161 -0.7 -29.2°
Drops below altitude 10° 05:14:31 10° 88° (E) 1,471 -0.1 -29.1°
Sets 05:16:38 0° 83° (E) 2,334 1.3 -28.8°
